Location: Colossi of Memnon
(25.7167°N, 32.6167°E)
Time: 11:29:58
(UTC+00:00)

Tiangong - Visible Passes

Search period start: 21 September 2021 00:00
Search period end: 01 October 2021 00:00
Orbit: 380 x 385 km, 41.5° (Epoch: 20 September)

Date Brightness Start Highest point End Pass type
(mag) Time Alt. Az. Time Alt. Az. Time Alt. Az.
21 Sep 3.9 02:35:46 10° SSE 02:37:19 13° SE 02:38:53 10° ESE visible
22 Sep 1.3 03:10:33 10° SW 03:13:41 71° SE 03:16:49 10° ENE visible
23 Sep 2.6 02:12:53 26° SSE 02:13:33 28° SE 02:16:20 10° ENE visible
24 Sep 1.4 02:48:19 22° W 02:50:03 48° NNW 02:53:08 10° NE visible
25 Sep 3.2 01:51:26 27° ENE 01:51:26 27° ENE 01:53:01 10° ENE visible
26 Sep 2.6 02:26:39 24° NNW 02:26:39 24° NNW 02:29:12 10° NNE visible
28 Sep 3.9 02:04:38 11° N 02:04:38 11° N 02:05:01 10° NNE visible
